Flag for U.S.A. Weather past 2 weeks in Green Bay, Wisconsin, U.S.A.

Now
51 °F

Sunny.


Feels Like: 50 °F
Forecast: 37 / 64 °F
Wind: 5 mph from North

Location: Austin Straubel International Airport

Current Time: May 22, 2015 at 8:39:11 AM

Latest Report: May 22, 2015 at 7:53 AM


Visibility: 10 mi

Pressure: 30.22 "Hg

Humidity: 46%

Dew point: 31 °F

Location of Green BayLocation

Historic Weather in Green Bay — Graph

°F

Green Bay temperature yesterday

Maximum temperature yesterday: 74 °F (at 2:53 PM)
Minimum temperature yesterday: 43 °F (at 2:53 AM)
Average temperature yesterday: 56 °F

Past Weeks' High & Low Weather Summary

 TemperatureHumidityPressure
High85 °F (May 7, 1:53 PM)100% (May 17, 2:53 AM)30.51 "Hg (May 17, 2:53 AM)
Low33 °F (May 20, 4:53 AM)22% (May 21, 3:53 PM)29.65 "Hg (May 11, 4:53 PM)
Average56 °F69%30.05 "Hg
* Reported May 7 6:53 AM — May 22 6:53 AM, Green Bay, Weather by CustomWeather, © 2015

Note: Actual official high and low records may vary slightly from our data, if they occured in-between our weather recording intervals... More about our weather records

Advertising

Green Bay weather history for previous 24 hours

 ConditionsComfort  
Time TempWeatherWind HumidityBarometerVisibility
6:53 AM
Fri, May 22
45 °FSunny.No wind76%30.21 "Hg10 mi
5:53 AM38 °FClear.3 mph90%30.19 "Hg10 mi
4:53 AM38 °FClear.No wind86%30.17 "Hg10 mi
3:53 AM38 °FClear.3 mph90%30.14 "Hg10 mi
2:53 AM39 °FClear.5 mph82%30.12 "Hg10 mi
1:53 AM42 °FClear.3 mph73%30.10 "Hg10 mi
12:53 AM42 °FClear.3 mph73%30.09 "Hg10 mi
11:53 PM
Thu, May 21
43 °FClear.5 mph74%30.08 "Hg10 mi
10:53 PM48 °FClear.No wind56%30.07 "Hg10 mi
9:53 PM50 °FClear.8 mph52%30.05 "Hg10 mi
8:53 PM53 °FSunny.12 mph51%30.02 "Hg10 mi
7:53 PM56 °FScattered clouds.10 mph58%29.99 "Hg10 mi
6:53 PM59 °FPartly sunny.12 mph54%29.95 "Hg10 mi
5:53 PM61 °FMostly cloudy.14 mph58%29.94 "Hg10 mi
4:53 PM71 °FLight rain. Overcast.25 mph27%29.91 "Hg10 mi
3:53 PM74 °FScattered clouds.21 mph22%29.90 "Hg10 mi
2:53 PM74 °FScattered clouds.17 mph25%29.90 "Hg10 mi
1:53 PM73 °FScattered clouds.16 mph24%29.91 "Hg10 mi
12:53 PM72 °FScattered clouds.16 mph27%29.92 "Hg10 mi
11:53 AM69 °FPassing clouds.12 mph31%29.94 "Hg10 mi
10:53 AM66 °FSunny.9 mph37%29.96 "Hg10 mi
9:53 AM61 °FSunny.10 mph42%29.98 "Hg10 mi
8:53 AM57 °FSunny.13 mph49%30.00 "Hg10 mi
Weather by CustomWeather, © 2015

See weather overviewHow to use our weather pages